Location: Unspecified
(0.0000°N, 0.0000°E)
Time: 01:28:04
(UTC+00:00)

A-11 Canister half - Pass Details

Date: 19 November 2019
Orbit: 1515 x 1685 km, 47.2° (Epoch: 10 December)

Event Time Altitude Azimuth Distance (km) Brightness Sun altitude
Rises 05:01:58 0° 277° (W) 4,773 - -10.2°
Exits shadow 05:05:13 - 264° (W) 4,093 10.7 -9.4°
Reaches altitude 10° 05:07:19 10° 253° (WSW) 3,752 10.6 -8.9°
Maximum altitude 05:11:35 14° 226° (SW) 3,435 10.6 -7.9°
Drops below altitude 10° 05:15:51 10° 198° (SSW) 3,705 11.0 -6.9°
Sets 05:21:08 0° 173° (S) 4,668 11.9 -5.7°
